Volver al catálogo

STARLINK-31054

ActivoComunicacionesVLEO
NORAD 58619·PAYLOAD·🇺🇸 United States

Lanzado Dec 23, 2023 desde Cape Canaveral Space Force Station

Loading…

Próximos Pases (próximas 24 horas)

TLE

ActualizadoSource: CelesTrak SupGP

Época: Sep 14, 2026, 22:08 UTC

1 58619C 23203B   26257.92270833  .00047890  00000+0  17348-2 0  2574
2 58619  43.0018  78.5537 0001387 272.0819 332.2983 15.27550848    16

Sigue STARLINK-31054 en tiempo real con AllMySat

Download on the App Store